Terminal Aerodrome Forecast
Issued by NWS Flagstaff, AZ

Home | Current Version | Previous Version | Text Only | Print | Product List | Glossary On
Versions: 1 2 3 4 5 6 7 8 9 10 11 12 13 14 15
000
FTUS45 KFGZ 311130
TAFINW
TAF
KINW 311130Z 3112/0112 23006KT P6SM SCT110 BKN200
      TEMPO 3120/3124 VRB10G18KT TSRA BKN080CB
     FM010300 23006KT P6SM SCT100 BKN200=

USA.gov is the U.S. government's official web portal to all federal, state and local government web resources and services.